Hourly Data Report for April 09, 2020

CLYDE RIVER A
NUNAVUT
Current Station Operator: NAVCAN

70°29'09.000" N
68°31'01.000" W
26.50 m
2400804
71090
YCY

Download Data

Hourly Data (April 2020)
Hourly Data Report for April 9, 2020
TIME
LST
Temp Definition
°C
Dew Point Definition
°C
Rel Hum Definition
%
Precip. Amount Definition
mm

Wind Dir Definition
10's deg

Wind Spd Definition
km/h
Visibility Definition
km
Stn Press Definition
kPa
Hmdx Definition


Wind Chill Definition


Weather Definition


00:00 -17.9 -20.0 84 0.0 11 8 16.1 102.11   -24 LegendNANA
01:00 -19.0 -20.4 89 0.0 12 18 16.1 102.08   -29 Snow
02:00 -19.5 -20.9 89 0.0 12 18 16.1 102.05   -29 Snow
03:00 -19.6 -21.3 86 0.0 14 15 16.1 102.05   -29 LegendNANA
04:00 -19.8 -21.8 84 0.0 16 5 16.1 102.03   -24 LegendNANA
05:00 -19.3 -20.7 89 0.0 13 9 16.1 102.05   -26 LegendNANA
06:00 -20.1 -21.6 88 0.0 LegendMM 4 16.1 102.04   -24 LegendNANA
07:00 -20.4 -22.1 87 0.0 6 8 16.1 102.04   -27 LegendNANA
08:00 -17.7 -19.0 90 0.0 5 8 16.1 102.00   -24 LegendNANA
09:00 -16.9 -18.3 89 0.0 2 4 16.1 101.97   -20 LegendNANA
10:00 -15.8 -17.4 88 0.0   0 16.1 101.95     LegendNANA
11:00 -13.9 -16.1 84 0.0 33 4 16.1 101.92   -17 LegendNANA
12:00 -13.2 -15.2 85 0.0 8 4 16.1 101.89   -16 LegendNANA
13:00 -13.0 -15.5 82 0.0 7 4 16.1 101.88   -16 LegendNANA
14:00 -12.3 -15.4 78 0.0 4 4 16.1 101.86   -15 LegendNANA
15:00 -12.4 -14.4 85 0.0 36 4 16.1 101.85   -15 LegendNANA
16:00 -12.6 -14.1 89 0.0 6 8 16.1 101.86   -18 LegendNANA
17:00 -14.9 -16.5 88 0.0 3 9 16.1 101.86   -21 LegendNANA
18:00 -15.7 -16.8 92 0.0 2 9 16.1 101.86   -22 LegendNANA
19:00 -17.6 -18.8 91 0.0 4 4 0.4 101.88   -21 Heavy Snow
20:00 -17.7 -19.1 89 0.0 35 21 16.1 101.88   -28 LegendNANA
21:00 -15.7 -17.8 84 0.0 32 22 16.1 101.88   -25 LegendNANA
22:00 -16.1 -18.0 85 0.0 32 17 16.1 101.86   -25 LegendNANA
23:00 -15.1 -17.4 83 0.0 32 30 16.1 101.81   -26 LegendNANA

Notes on Data Quality.

Legend

  • E = Estimated
  • M = Missing
  • NA = Not Available*
  • [empty] = Indicates an unobserved value
Date modified: